Home > Weather > Welland > Past weeks

Flag for Canada Past Weather in Welland, Ontario, Canada — Yesterday and Last 2 Weeks

Now
66 °F

Mild.


Feels Like: 66 °F
Forecast: 59 / 76 °F
Wind: 7 mph from Southwest

Location: Burlington Piers

Current Time: May 25, 2016 at 5:17:05 AM

Latest Report: May 25, 2016 at 4:00 AM


Visibility: N/A

Pressure: 29.97 "Hg

Humidity: 46%

Dew Point: 44 °F

Location of WellandLocation

Past Weather in Welland — Graph

°F

Welland Temperature Yesterday

Maximum temperature yesterday: 83 °F (at 5:00 PM)
Minimum temperature yesterday: 60 °F (at 7:00 AM)
Average temperature yesterday: 71 °F

High & Low Weather Summary for the Past Weeks

 TemperatureHumidityPressure
High83 °F (May 24, 5:00 PM)97% (May 14, 7:00 AM)30.29 "Hg (May 14, 7:00 AM)
Low38 °F (May 16, 2:00 AM)16% (May 24, 7:00 PM)29.47 "Hg (May 14, 11:00 AM)
Average55 °F59%30.02 "Hg
* Reported May 10 4:00 AM — May 25 4:00 AM, Welland, Weather by CustomWeather, © 2016

Note: Actual official high and low records may vary slightly from our data, if they occured in-between our weather recording intervals... More about our weather records

Advertising

Welland Weather History for the Previous 24 Hours

Scroll right to see more
 ConditionsComfort  
Time TempWeatherWind HumidityBarometerVisibility
4:00 AM
Wed, May 25
66 °FMild.7 mph46%29.97 "HgN/A
3:00 AM66 °FMild.8 mph42%29.97 "HgN/A
2:00 AM67 °FMild.7 mph43%29.96 "HgN/A
1:00 AM67 °FMild.6 mph39%29.96 "HgN/A
12:00 AM69 °FMild.7 mph34%29.98 "HgN/A
11:00 PM
Tue, May 24
70 °FMild.2 mph36%29.97 "HgN/A
10:00 PM73 °FMild.5 mph33%29.97 "HgN/A
9:00 PM76 °FMild.7 mph27%29.95 "HgN/A
8:00 PM77 °FMild.7 mph30%29.93 "HgN/A
7:00 PM83 °FPleasantly warm.7 mph16%29.92 "HgN/A
6:00 PM82 °FPleasantly warm.5 mph19%29.92 "HgN/A
5:00 PM83 °FPleasantly warm.5 mph21%29.92 "HgN/A
4:00 PM82 °FPleasantly warm.7 mph22%29.93 "HgN/A
3:00 PM82 °FPleasantly warm.8 mph18%29.94 "HgN/A
2:00 PM80 °FPleasantly warm.7 mph20%29.95 "HgN/A
1:00 PM79 °FPleasantly warm.7 mph20%29.95 "HgN/A
12:00 PM77 °FMild.7 mph25%29.97 "HgN/A
11:00 AM73 °FMild.7 mph32%29.98 "HgN/A
10:00 AM71 °FMild.3 mph36%29.99 "HgN/A
9:00 AM65 °FMild.8 mph49%29.99 "HgN/A
8:00 AM62 °FRefreshingly cool.8 mph53%29.98 "HgN/A
7:00 AM60 °FCool.7 mph61%29.97 "HgN/A
6:00 AM60 °FRefreshingly cool.7 mph57%29.97 "HgN/A
5:00 AM60 °FRefreshingly cool.7 mph55%29.96 "HgN/A
Weather by CustomWeather, © 2016

See weather overviewHow to use our weather pages